| time (UTC) | temp C | wind direction | speed KPH | gust KPH | rain 1hr cm | rain 24hr cm | rain mn cm | humidity % | barometer mb |
| 20260503192016 | 16 | 278 | 0.0 | 12.9 | 0.00 | 0.00 | 0.00 | 74 | |
| 20260503191814 | 16 | 278 | 0.0 | 11.3 | 0.00 | 0.00 | 0.00 | 74 | |
| 20260503191610 | 16 | 298 | 6.4 | 11.3 | 0.00 | 0.00 | 0.00 | 74 | |
| 20260503191410 | 16 | 270 | 11.3 | 11.3 | 0.00 | 0.00 | 0.00 | 74 | |
| 20260503191208 | 16 | 274 | 9.7 | 11.3 | 0.00 | 0.00 | 0.00 | 73 | |
| 20260503191005 | 16 | 286 | 8.0 | 11.3 | 0.00 | 0.00 | 0.00 | 75 | |
| 20260503190805 | 15 | 302 | 3.2 | 9.7 | 0.00 | 0.00 | 0.00 | 75 | |
| 20260503190603 | 15 | 271 | 9.7 | 9.7 | 0.00 | 0.00 | 0.00 | 76 | |
| 20260503190401 | 15 | 292 | 9.7 | 9.7 | 0.00 | 0.00 | 0.00 | 75 | |
| 20260503190159 | 15 | 320 | 1.6 | 11.3 | 0.00 | 0.00 | 0.00 | 76 | |
| 20260503185957 | 15 | 288 | 8.0 | 11.3 | 0.00 | 0.00 | 0.00 | 76 | |
| 20260503185756 | 15 | 291 | 8.0 | 9.7 | 0.00 | 0.00 | 0.00 | 76 | |
| 20260503185553 | 15 | 5 | 1.6 | 9.7 | 0.00 | 0.00 | 0.00 | 77 | |
| 20260503185351 | 15 | 300 | 6.4 | 9.7 | 0.00 | 0.00 | 0.00 | 77 | |
| 20260503185149 | 15 | 354 | 0.0 | 4.8 | 0.00 | 0.00 | 0.00 | 80 | |
| 20260503184947 | 15 | 354 | 0.0 | 4.8 | 0.00 | 0.00 | 0.00 | 80 | |
| 20260503184745 | 15 | 354 | 0.0 | 8.0 | 0.00 | 0.00 | 0.00 | 80 | |
| 20260503184544 | 15 | 2 | 0.0 | 8.0 | 0.00 | 0.00 | 0.00 | 79 | |
| 20260503184341 | 15 | 305 | 4.8 | 8.0 | 0.00 | 0.00 | 0.00 | 78 | |
| 20260503184139 | 15 | 299 | 3.2 | 3.2 | 0.00 | 0.00 | 0.00 | 79 | |
| 20260503183938 | 15 | 344 | 0.0 | 3.2 | 0.00 | 0.00 | 0.00 | 80 | |
| 20260503183735 | 15 | 7 | 1.6 | 6.4 | 0.00 | 0.00 | 0.00 | 81 | |
| 20260503183534 | 15 | 289 | 0.0 | 6.4 | 0.00 | 0.00 | 0.00 | 81 | |
| 20260503183130 | 15 | 307 | 4.8 | 0.0 | 0.00 | 0.00 | 0.00 | 79 | |
| 20260503182928 | 15 | 292 | 0.0 | 0.0 | 0.00 | 0.00 | 0.00 | 81 | |
| 20260503182726 | 15 | 258 | 0.0 | 1.6 | 0.00 | 0.00 | 0.00 | 82 | |
| 20260503182524 | 15 | 258 | 0.0 | 1.6 | 0.00 | 0.00 | 0.00 | 81 | |
| 20260503182323 | 15 | 258 | 0.0 | 8.0 | 0.00 | 0.00 | 0.00 | 82 | |
| 20260503182121 | 15 | 258 | 0.0 | 8.0 | 0.00 | 0.00 | 0.00 | 81 | |
| 20260503181917 | 15 | 258 | 0.0 | 8.0 | 0.00 | 0.00 | 0.00 | 80 | |
| 20260503181717 | 15 | 286 | 4.8 | 0.0 | 0.00 | 0.00 | 0.00 | 80 | |
| 20260503181515 | 15 | 265 | 3.2 | 0.0 | 0.00 | 0.00 | 0.00 | 82 | |
| 20260503181313 | 15 | 310 | 0.0 | 4.8 | 0.00 | 0.00 | 0.00 | 82 | |
| 20260503181111 | 15 | 310 | 0.0 | 4.8 | 0.00 | 0.00 | 0.00 | 82 | |
| 20260503180909 | 15 | 310 | 0.0 | 4.8 | 0.00 | 0.00 | 0.00 | 82 | |
| 20260503180707 | 15 | 310 | 0.0 | 0.0 | 0.00 | 0.00 | 0.00 | 82 | |
| 20260503180505 | 15 | 298 | 4.8 | 0.0 | 0.00 | 0.00 | 0.00 | 81 | |
| 20260503180302 | 15 | 182 | 0.0 | 3.2 | 0.00 | 0.00 | 0.00 | 81 | |
| 20260503175900 | 15 | 182 | 0.0 | 3.2 | 0.00 | 0.00 | 0.00 | 83 | |
| 20260503175658 | 15 | 208 | 1.6 | 4.8 | 0.00 | 0.00 | 0.00 | 81 | |
| 20260503175456 | 15 | 216 | 0.0 | 4.8 | 0.00 | 0.00 | 0.00 | 83 | |
| 20260503175254 | 15 | 223 | 3.2 | 4.8 | 0.00 | 0.00 | 0.00 | 83 | |
| 20260503175052 | 15 | 113 | 3.2 | 4.8 | 0.00 | 0.00 | 0.00 | 85 | |
| 20260503174850 | 15 | 64 | 0.0 | 4.8 | 0.00 | 0.00 | 0.00 | 85 | |
| 20260503174648 | 14 | 192 | 1.6 | 6.4 | 0.00 | 0.00 | 0.00 | 84 | |
| 20260503174447 | 14 | 106 | 0.0 | 6.4 | 0.00 | 0.00 | 0.00 | 86 | |
| 20260503174042 | 14 | 45 | 0.0 | 3.2 | 0.00 | 0.00 | 0.00 | 86 | |
| 20260503173841 | 14 | 123 | 4.8 | 3.2 | 0.00 | 0.00 | 0.00 | 87 | |
| 20260503173639 | 14 | 135 | 0.0 | 3.2 | 0.00 | 0.00 | 0.00 | 88 | |
| 20260503173435 | 14 | 135 | 0.0 | 3.2 | 0.00 | 0.00 | 0.00 | 88 | |
| 20260503173235 | 14 | 91 | 0.0 | 3.2 | 0.00 | 0.00 | 0.00 | 90 | |
| 20260503173033 | 14 | 122 | 1.6 | 3.2 | 0.00 | 0.00 | 0.00 | 90 | |
| 20260503172831 | 13 | 90 | 1.6 | 3.2 | 0.00 | 0.00 | 0.00 | 90 | |
| 20260503172630 | 13 | 84 | 0.0 | 3.2 | 0.00 | 0.00 | 0.00 | 92 | |
| 20260503172428 | 13 | 84 | 0.0 | 3.2 | 0.00 | 0.00 | 0.00 | 92 | |
| 20260503172024 | 13 | 171 | 0.0 | 3.2 | 0.00 | 0.00 | 0.00 | 93 | |
| 20260503171822 | 13 | 187 | 1.6 | 4.8 | 0.00 | 0.00 | 0.00 | 93 | |
| 20260503171620 | 13 | 282 | 0.0 | 4.8 | 0.00 | 0.00 | 0.00 | 93 | |
| 20260503171418 | 13 | 282 | 0.0 | 4.8 | 0.00 | 0.00 | 0.00 | 93 | |
| 20260503171216 | 13 | 285 | 0.0 | 3.2 | 0.00 | 0.00 | 0.00 | 93 | |
| 20260503171014 | 13 | 285 | 3.2 | 3.2 | 0.00 | 0.00 | 0.00 | 93 | |
| 20260503170812 | 13 | 286 | 0.0 | 6.4 | 0.00 | 0.00 | 0.00 | 93 | |
| 20260503170610 | 13 | 289 | 0.0 | 6.4 | 0.00 | 0.00 | 0.00 | 94 | |
| 20260503170408 | 13 | 289 | 0.0 | 6.4 | 0.00 | 0.00 | 0.00 | 94 | |
| 20260503170206 | 13 | 289 | 0.0 | 8.0 | 0.00 | 0.00 | 0.00 | 94 | |
| 20260503160109 | 13 | 264 | 6.4 | 11.3 | 0.00 | 0.00 | 0.00 | 94 | |
| 20260503150818 | 13 | 278 | 0.0 | 8.0 | 0.00 | 0.00 | 0.00 | 95 | |
| 20260503150618 | 13 | 282 | 1.6 | 8.0 | 0.00 | 0.00 | 0.00 | 95 | |
| 20260503150416 | 13 | 282 | 3.2 | 8.0 | 0.00 | 0.00 | 0.00 | 95 | |
| 20260503150214 | 13 | 286 | 3.2 | 9.7 | 0.00 | 0.00 | 0.00 | 95 | |
| 20260503131231 | 13 | 300 | 0.0 | 0.0 | 0.00 | 0.00 | 0.00 | 96 | |
| 20260503131029 | 13 | 300 | 0.0 | 0.0 | 0.00 | 0.00 | 0.00 | 96 | |
| 20260503130828 | 13 | 300 | 0.0 | 0.0 | 0.00 | 0.00 | 0.00 | 96 | |
| 20260503130626 | 13 | 300 | 0.0 | 0.0 | 0.00 | 0.00 | 0.00 | 96 | |
| 20260503130424 | 13 | 300 | 0.0 | 0.0 | 0.00 | 0.00 | 0.00 | 96 | |
| 20260503130222 | 13 | 300 | 0.0 | 0.0 | 0.00 | 0.00 | 0.00 | 96 | |
| 20260503120124 | 13 | 288 | 1.6 | 6.4 | 0.00 | 0.00 | 0.00 | 96 | |
| 20260503110635 | 13 | 260 | 0.0 | 0.0 | 0.00 | 0.00 | 0.00 | 97 | |
| 20260503110431 | 13 | 260 | 0.0 | 0.0 | 0.00 | 0.00 | 0.00 | 96 | |
| 20260503100217 | 13 | 260 | 0.0 | 0.0 | 0.00 | 0.00 | 0.00 | 97 | |
| 20260503100133 | 13 | 260 | 0.0 | 0.0 | 0.00 | 0.00 | 0.00 | 97 | |
| 20260503090439 | 13 | 265 | 8.0 | 11.3 | 0.00 | 0.00 | 0.00 | 96 | |
| 20260503090237 | 13 | 277 | 8.0 | 9.7 | 0.00 | 0.00 | 0.00 | 96 | |
| 20260503081552 | 14 | 267 | 8.0 | 8.0 | 0.00 | 0.00 | 0.00 | 95 | |
| 20260503081352 | 14 | 281 | 3.2 | 8.0 | 0.00 | 0.00 | 0.00 | 95 | |
| 20260503080746 | 14 | 296 | 3.2 | 9.7 | 0.00 | 0.00 | 0.00 | 95 | |
| 20260503080542 | 14 | 281 | 1.6 | 9.7 | 0.00 | 0.00 | 0.00 | 95 | |
| 20260503080342 | 14 | 295 | 4.8 | 9.7 | 0.00 | 0.00 | 0.00 | 95 | |
| 20260503080140 | 13 | 284 | 4.8 | 11.3 | 0.00 | 0.00 | 0.00 | 95 | |
| 20260503072708 | 14 | 277 | 11.3 | 9.7 | 0.00 | 0.00 | 0.00 | 93 | |
| 20260503072506 | 14 | 279 | 6.4 | 9.7 | 0.00 | 0.00 | 0.00 | 93 | |
| 20260503072305 | 14 | 277 | 4.8 | 8.0 | 0.00 | 0.00 | 0.00 | 93 | |
| 20260503072102 | 14 | 281 | 9.7 | 8.0 | 0.00 | 0.00 | 0.00 | 93 | |
| 20260503071657 | 14 | 264 | 6.4 | 11.3 | 0.00 | 0.00 | 0.00 | 93 | |
| 20260503071256 | 14 | 279 | 6.4 | 9.7 | 0.00 | 0.00 | 0.00 | 93 | |
| 20260503071052 | 14 | 271 | 9.7 | 9.7 | 0.00 | 0.00 | 0.00 | 93 | |
| 20260503070851 | 14 | 299 | 6.4 | 9.7 | 0.00 | 0.00 | 0.00 | 93 | |
| 20260503070649 | 14 | 275 | 4.8 | 11.3 | 0.00 | 0.00 | 0.00 | 93 | |
| 20260503070245 | 14 | 293 | 8.0 | 9.7 | 0.00 | 0.00 | 0.00 | 93 | |
| 20260503060148 | 15 | 267 | 0.0 | 0.0 | 0.00 | 0.00 | 0.00 | 91 | |
| 20260503054735 | 15 | 267 | 0.0 | 0.0 | 0.00 | 0.00 | 0.00 | 91 | |
| 20260503054533 | 15 | 267 | 0.0 | 0.0 | 0.00 | 0.00 | 0.00 | 91 | |
| 20260503054129 | 15 | 267 | 0.0 | 0.0 | 0.00 | 0.00 | 0.00 | 91 | |
| 20260503053927 | 15 | 267 | 0.0 | 0.0 | 0.00 | 0.00 | 0.00 | 91 | |
| 20260503053725 | 15 | 267 | 0.0 | 0.0 | 0.00 | 0.00 | 0.00 | 91 | |
| 20260503053523 | 15 | 267 | 0.0 | 0.0 | 0.00 | 0.00 | 0.00 | 91 | |
| 20260503053120 | 15 | 267 | 0.0 | 0.0 | 0.00 | 0.00 | 0.00 | 91 | |
| 20260503052716 | 15 | 267 | 0.0 | 0.0 | 0.00 | 0.00 | 0.00 | 90 | |
| 20260503052514 | 15 | 267 | 0.0 | 0.0 | 0.00 | 0.00 | 0.00 | 90 | |
| 20260503052310 | 15 | 267 | 0.0 | 0.0 | 0.00 | 0.00 | 0.00 | 90 | |
| 20260503051908 | 15 | 267 | 0.0 | 0.0 | 0.00 | 0.00 | 0.00 | 90 | |
| 20260503051504 | 15 | 267 | 0.0 | 0.0 | 0.00 | 0.00 | 0.00 | 90 | |
| 20260503051302 | 15 | 267 | 0.0 | 0.0 | 0.00 | 0.00 | 0.00 | 90 | |
| 20260503051101 | 15 | 267 | 0.0 | 0.0 | 0.00 | 0.00 | 0.00 | 90 | |
| 20260503050859 | 15 | 267 | 0.0 | 0.0 | 0.00 | 0.00 | 0.00 | 90 | |
| 20260503050454 | 15 | 267 | 0.0 | 0.0 | 0.00 | 0.00 | 0.00 | 90 | |
| 20260503050253 | 15 | 267 | 0.0 | 0.0 | 0.00 | 0.00 | 0.00 | 90 | |
| 20260503050051 | 15 | 267 | 0.0 | 0.0 | 0.00 | 0.00 | 0.00 | 90 | |
| 20260503045849 | 15 | 267 | 0.0 | 0.0 | 0.00 | 0.00 | 0.00 | 90 | |
| 20260503045445 | 15 | 267 | 0.0 | 0.0 | 0.00 | 0.00 | 0.00 | 90 | |
| 20260503045244 | 15 | 267 | 0.0 | 0.0 | 0.00 | 0.00 | 0.00 | 90 | |
| 20260503045042 | 15 | 267 | 0.0 | 0.0 | 0.00 | 0.00 | 0.00 | 90 | |
| 20260503044840 | 15 | 267 | 0.0 | 0.0 | 0.00 | 0.00 | 0.00 | 90 | |
| 20260503044642 | 15 | 267 | 0.0 | 0.0 | 0.00 | 0.00 | 0.00 | 90 | |
| 20260503044436 | 15 | 267 | 0.0 | 0.0 | 0.00 | 0.00 | 0.00 | 90 | |
| 20260503044234 | 15 | 267 | 0.0 | 0.0 | 0.00 | 0.00 | 0.00 | 90 | |
| 20260503044030 | 15 | 267 | 0.0 | 0.0 | 0.00 | 0.00 | 0.00 | 90 | |
| 20260503043830 | 15 | 267 | 0.0 | 0.0 | 0.00 | 0.00 | 0.00 | 90 | |
| 20260503043628 | 15 | 267 | 0.0 | 0.0 | 0.00 | 0.00 | 0.00 | 90 | |
| 20260503043426 | 15 | 267 | 0.0 | 0.0 | 0.00 | 0.00 | 0.00 | 90 | |
| 20260503043224 | 15 | 267 | 0.0 | 0.0 | 0.00 | 0.00 | 0.00 | 90 | |
| 20260503043022 | 15 | 267 | 0.0 | 0.0 | 0.00 | 0.00 | 0.00 | 90 | |
| 20260503042821 | 15 | 267 | 0.0 | 0.0 | 0.00 | 0.00 | 0.00 | 90 | |
| 20260503042415 | 15 | 267 | 0.0 | 0.0 | 0.00 | 0.00 | 0.00 | 90 | |
| 20260503042013 | 15 | 267 | 0.0 | 0.0 | 0.00 | 0.00 | 0.00 | 90 | |
| 20260503041811 | 15 | 267 | 0.0 | 0.0 | 0.00 | 0.00 | 0.00 | 90 | |
| 20260503041609 | 15 | 267 | 0.0 | 0.0 | 0.00 | 0.00 | 0.00 | 90 | |
| 20260503041205 | 15 | 267 | 0.0 | 0.0 | 0.00 | 0.00 | 0.00 | 90 | |
| 20260503041003 | 15 | 267 | 0.0 | 0.0 | 0.00 | 0.00 | 0.00 | 90 | |
| 20260503040800 | 15 | 267 | 0.0 | 0.0 | 0.00 | 0.00 | 0.00 | 90 | |
| 20260503040600 | 15 | 267 | 0.0 | 0.0 | 0.00 | 0.00 | 0.00 | 89 | |
| 20260503040358 | 15 | 267 | 0.0 | 0.0 | 0.00 | 0.00 | 0.00 | 90 | |
| 20260503035348 | 15 | 281 | 4.8 | 8.0 | 0.00 | 0.00 | 0.00 | 90 | |
| 20260503035146 | 15 | 288 | 3.2 | 11.3 | 0.00 | 0.00 | 0.00 | 90 | |
| 20260503034944 | 15 | 293 | 6.4 | 11.3 | 0.00 | 0.00 | 0.00 | 90 | |
| 20260503034540 | 15 | 275 | 8.0 | 11.3 | 0.00 | 0.00 | 0.00 | 90 | |
| 20260503033935 | 15 | 284 | 6.4 | 11.3 | 0.00 | 0.00 | 0.00 | 89 | |
| 20260503033531 | 15 | 286 | 3.2 | 12.9 | 0.00 | 0.00 | 0.00 | 88 | |
| 20260503033329 | 15 | 275 | 8.0 | 12.9 | 0.00 | 0.00 | 0.00 | 88 | |
| 20260503033127 | 15 | 281 | 9.7 | 12.9 | 0.00 | 0.00 | 0.00 | 88 | |
| 20260503032925 | 15 | 268 | 8.0 | 12.9 | 0.00 | 0.00 | 0.00 | 88 | |
| 20260503032723 | 15 | 278 | 9.7 | 14.5 | 0.00 | 0.00 | 0.00 | 88 | |
| 20260503032520 | 15 | 284 | 9.7 | 14.5 | 0.00 | 0.00 | 0.00 | 88 | |
| 20260503032116 | 15 | 277 | 12.9 | 12.9 | 0.00 | 0.00 | 0.00 | 87 | |
| 20260503031914 | 15 | 267 | 11.3 | 12.9 | 0.00 | 0.00 | 0.00 | 87 | |
| 20260503031714 | 15 | 293 | 4.8 | 16.1 | 0.00 | 0.00 | 0.00 | 86 | |
| 20260503031512 | 15 | 270 | 9.7 | 16.1 | 0.00 | 0.00 | 0.00 | 86 | |
| 20260503031308 | 15 | 270 | 9.7 | 16.1 | 0.00 | 0.00 | 0.00 | 86 | |
| 20260503031108 | 15 | 279 | 11.3 | 16.1 | 0.00 | 0.00 | 0.00 | 85 | |
| 20260503030906 | 15 | 281 | 11.3 | 16.1 | 0.00 | 0.00 | 0.00 | 86 | |
| 20260503030704 | 16 | 274 | 14.5 | 14.5 | 0.00 | 0.00 | 0.00 | 85 | |
| 20260503030503 | 16 | 270 | 9.7 | 14.5 | 0.00 | 0.00 | 0.00 | 85 | |
| 20260503030259 | 16 | 267 | 11.3 | 14.5 | 0.00 | 0.00 | 0.00 | 85 | |
| 20260503030059 | 16 | 291 | 11.3 | 14.5 | 0.00 | 0.00 | 0.00 | 84 | |
| 20260503025857 | 16 | 284 | 12.9 | 14.5 | 0.00 | 0.00 | 0.00 | 84 | |
| 20260503025655 | 16 | 282 | 9.7 | 16.1 | 0.00 | 0.00 | 0.00 | 84 | |
| 20260503025451 | 16 | 277 | 11.3 | 16.1 | 0.00 | 0.00 | 0.00 | 84 | |
| 20260503025251 | 16 | 268 | 12.9 | 14.5 | 0.00 | 0.00 | 0.00 | 83 | |
| 20260503025049 | 16 | 260 | 14.5 | 14.5 | 0.00 | 0.00 | 0.00 | 83 | |
| 20260503024847 | 16 | 264 | 12.9 | 14.5 | 0.00 | 0.00 | 0.00 | 82 | |
| 20260503024644 | 16 | 275 | 12.9 | 14.5 | 0.00 | 0.00 | 0.00 | 82 | |
| 20260503024444 | 16 | 272 | 9.7 | 14.5 | 0.00 | 0.00 | 0.00 | 82 | |
| 20260503024242 | 16 | 271 | 11.3 | 14.5 | 0.00 | 0.00 | 0.00 | 82 | |
| 20260503024039 | 16 | 274 | 11.3 | 14.5 | 0.00 | 0.00 | 0.00 | 81 | |
| 20260503023836 | 16 | 284 | 9.7 | 14.5 | 0.00 | 0.00 | 0.00 | 81 | |
| 20260503023434 | 17 | 270 | 9.7 | 14.5 | 0.00 | 0.00 | 0.00 | 80 | |
| 20260503023230 | 17 | 277 | 9.7 | 14.5 | 0.00 | 0.00 | 0.00 | 80 | |
| 20260503023030 | 17 | 260 | 12.9 | 14.5 | 0.00 | 0.00 | 0.00 | 79 | |
| 20260503022828 | 17 | 253 | 12.9 | 14.5 | 0.00 | 0.00 | 0.00 | 79 | |
| 20260503022626 | 17 | 272 | 9.7 | 16.1 | 0.00 | 0.00 | 0.00 | 78 | |
| 20260503022425 | 17 | 286 | 11.3 | 16.1 | 0.00 | 0.00 | 0.00 | 78 | |
| 20260503022223 | 17 | 293 | 11.3 | 12.9 | 0.00 | 0.00 | 0.00 | 77 | |
| 20260503022021 | 17 | 279 | 9.7 | 12.9 | 0.00 | 0.00 | 0.00 | 76 | |
| 20260503021817 | 18 | 281 | 6.4 | 14.5 | 0.00 | 0.00 | 0.00 | 76 | |
| 20260503021615 | 18 | 271 | 8.0 | 14.5 | 0.00 | 0.00 | 0.00 | 76 | |
| 20260503021213 | 18 | 261 | 11.3 | 14.5 | 0.00 | 0.00 | 0.00 | 75 | |
| 20260503021011 | 18 | 295 | 11.3 | 14.5 | 0.00 | 0.00 | 0.00 | 75 | |
| 20260503020809 | 18 | 292 | 11.3 | 14.5 | 0.00 | 0.00 | 0.00 | 74 | |
| 20260503020607 | 18 | 279 | 8.0 | 14.5 | 0.00 | 0.00 | 0.00 | 73 | |
| 20260503020404 | 18 | 275 | 11.3 | 14.5 | 0.00 | 0.00 | 0.00 | 73 | |
| 20260503020204 | 18 | 277 | 6.4 | 14.5 | 0.00 | 0.00 | 0.00 | 72 | |
| 20260503020002 | 18 | 278 | 9.7 | 14.5 | 0.00 | 0.00 | 0.00 | 72 | |
| 20260503015800 | 19 | 282 | 4.8 | 14.5 | 0.00 | 0.00 | 0.00 | 72 | |
| 20260503015356 | 19 | 265 | 9.7 | 14.5 | 0.00 | 0.00 | 0.00 | 71 | |
| 20260503014952 | 19 | 279 | 9.7 | 16.1 | 0.00 | 0.00 | 0.00 | 70 | |
| 20260503014750 | 19 | 298 | 6.4 | 12.9 | 0.00 | 0.00 | 0.00 | 70 | |
| 20260503014548 | 20 | 265 | 6.4 | 12.9 | 0.00 | 0.00 | 0.00 | 69 | |
| 20260503013942 | 20 | 267 | 6.4 | 12.9 | 0.00 | 0.00 | 0.00 | 68 | |
| 20260503013538 | 20 | 251 | 4.8 | 14.5 | 0.00 | 0.00 | 0.00 | 68 | |
| 20260503013337 | 20 | 272 | 9.7 | 14.5 | 0.00 | 0.00 | 0.00 | 67 | |
| 20260503013135 | 20 | 268 | 9.7 | 14.5 | 0.00 | 0.00 | 0.00 | 67 | |
| 20260503012933 | 20 | 260 | 8.0 | 14.5 | 0.00 | 0.00 | 0.00 | 67 | |
| 20260503012529 | 20 | 262 | 12.9 | 14.5 | 0.00 | 0.00 | 0.00 | 66 | |
| 20260503012327 | 20 | 264 | 11.3 | 14.5 | 0.00 | 0.00 | 0.00 | 66 | |
| 20260503011924 | 20 | 267 | 8.0 | 16.1 | 0.00 | 0.00 | 0.00 | 66 | |
| 20260503011520 | 20 | 271 | 9.7 | 17.7 | 0.00 | 0.00 | 0.00 | 66 | |
| 20260503011115 | 20 | 286 | 11.3 | 19.3 | 0.00 | 0.00 | 0.00 | 67 | |
| 20260503010914 | 20 | 258 | 17.7 | 19.3 | 0.00 | 0.00 | 0.00 | 65 | |
| 20260503010711 | 20 | 268 | 12.9 | 16.1 | 0.00 | 0.00 | 0.00 | 65 | |
| 20260503010510 | 20 | 268 | 9.7 | 16.1 | 0.00 | 0.00 | 0.00 | 65 | |
| 20260503010308 | 20 | 277 | 11.3 | 19.3 | 0.00 | 0.00 | 0.00 | 65 | |
| 20260503010106 | 21 | 277 | 14.5 | 19.3 | 0.00 | 0.00 | 0.00 | 65 | |
| 20260503005904 | 21 | 240 | 4.8 | 19.3 | 0.00 | 0.00 | 0.00 | 65 | |
| 20260503005702 | 21 | 257 | 16.1 | 17.7 | 0.00 | 0.00 | 0.00 | 63 | |
| 20260503005500 | 21 | 248 | 17.7 | 17.7 | 0.00 | 0.00 | 0.00 | 63 | |
| 20260503005258 | 21 | 260 | 8.0 | 16.1 | 0.00 | 0.00 | 0.00 | 63 | |
| 20260503005056 | 21 | 254 | 16.1 | 16.1 | 0.00 | 0.00 | 0.00 | 63 | |
| 20260503004855 | 21 | 270 | 11.3 | 16.1 | 0.00 | 0.00 | 0.00 | 63 | |
| 20260503004652 | 21 | 278 | 11.3 | 16.1 | 0.00 | 0.00 | 0.00 | 63 | |
| 20260503004450 | 21 | 260 | 8.0 | 16.1 | 0.00 | 0.00 | 0.00 | 62 | |
| 20260503004248 | 21 | 270 | 16.1 | 16.1 | 0.00 | 0.00 | 0.00 | 62 | |
| 20260503004045 | 21 | 255 | 6.4 | 16.1 | 0.00 | 0.00 | 0.00 | 62 | |
| 20260503003844 | 21 | 278 | 6.4 | 16.1 | 0.00 | 0.00 | 0.00 | 61 | |
| 20260503003643 | 21 | 260 | 9.7 | 20.9 | 0.00 | 0.00 | 0.00 | 62 | |
| 20260503003440 | 21 | 278 | 4.8 | 20.9 | 0.00 | 0.00 | 0.00 | 62 | |
| 20260503003037 | 21 | 251 | 11.3 | 14.5 | 0.00 | 0.00 | 0.00 | 61 | |
| 20260503002835 | 22 | 271 | 14.5 | 14.5 | 0.00 | 0.00 | 0.00 | 61 | |
| 20260503002633 | 21 | 275 | 9.7 | 14.5 | 0.00 | 0.00 | 0.00 | 61 | |
| 20260503002429 | 22 | 265 | 12.9 | 14.5 | 0.00 | 0.00 | 0.00 | 61 | |
| 20260503002229 | 22 | 284 | 9.7 | 16.1 | 0.00 | 0.00 | 0.00 | 60 | |
| 20260503002027 | 22 | 277 | 11.3 | 16.1 | 0.00 | 0.00 | 0.00 | 61 | |
| 20260503001825 | 21 | 251 | 8.0 | 16.1 | 0.00 | 0.00 | 0.00 | 61 | |
| 20260503001623 | 21 | 255 | 9.7 | 17.7 | 0.00 | 0.00 | 0.00 | 60 | |
| 20260503001421 | 21 | 275 | 11.3 | 17.7 | 0.00 | 0.00 | 0.00 | 61 | |
| 20260503001219 | 22 | 262 | 14.5 | 19.3 | 0.00 | 0.00 | 0.00 | 61 | |
| 20260503001015 | 21 | 275 | 16.1 | 19.3 | 0.00 | 0.00 | 0.00 | 60 | |
| 20260503000814 | 21 | 270 | 14.5 | 16.1 | 0.00 | 0.00 | 0.00 | 60 | |
| 20260503000614 | 22 | 258 | 11.3 | 16.1 | 0.00 | 0.00 | 0.00 | 60 | |
| 20260503000409 | 22 | 261 | 17.7 | 16.1 | 0.00 | 0.00 | 0.00 | 60 | |
| 20260503000007 | 21 | 268 | 11.3 | 19.3 | 0.00 | 0.00 | 0.00 | 60 | |
| 20260502235805 | 22 | 267 | 14.5 | 16.1 | 0.00 | 0.00 | 0.00 | 59 | |
| 20260502235603 | 22 | 268 | 14.5 | 16.1 | 0.00 | 0.00 | 0.00 | 58 | |
| 20260502235159 | 22 | 271 | 11.3 | 12.9 | 0.00 | 0.00 | 0.00 | 58 | |
| 20260502234957 | 22 | 258 | 8.0 | 12.9 | 0.00 | 0.00 | 0.00 | 59 | |
| 20260502234755 | 22 | 250 | 9.7 | 14.5 | 0.00 | 0.00 | 0.00 | 60 | |
| 20260502234553 | 22 | 274 | 9.7 | 14.5 | 0.00 | 0.00 | 0.00 | 59 | |
| 20260502234351 | 22 | 268 | 8.0 | 14.5 | 0.00 | 0.00 | 0.00 | 61 | |
| 20260502234150 | 21 | 306 | 1.6 | 16.1 | 0.00 | 0.00 | 0.00 | 62 | |
| 20260502233946 | 21 | 267 | 11.3 | 16.1 | 0.00 | 0.00 | 0.00 | 61 | |
| 20260502233745 | 21 | 250 | 12.9 | 14.5 | 0.00 | 0.00 | 0.00 | 61 | |
| 20260502233543 | 21 | 271 | 12.9 | 14.5 | 0.00 | 0.00 | 0.00 | 61 | |
| 20260502233341 | 21 | 246 | 1.6 | 14.5 | 0.00 | 0.00 | 0.00 | 61 | |
| 20260502232937 | 21 | 296 | 6.4 | 16.1 | 0.00 | 0.00 | 0.00 | 61 | |
| 20260502232735 | 21 | 267 | 8.0 | 17.7 | 0.00 | 0.00 | 0.00 | 61 | |
| 20260502232534 | 21 | 274 | 11.3 | 17.7 | 0.00 | 0.00 | 0.00 | 61 | |
| 20260502232331 | 21 | 278 | 11.3 | 17.7 | 0.00 | 0.00 | 0.00 | 61 | |
| 20260502232130 | 21 | 286 | 11.3 | 16.1 | 0.00 | 0.00 | 0.00 | 61 | |
| 20260502231926 | 21 | 264 | 11.3 | 16.1 | 0.00 | 0.00 | 0.00 | 61 | |
| 20260502231524 | 21 | 219 | 4.8 | 19.3 | 0.00 | 0.00 | 0.00 | 62 | |
| 20260502231120 | 21 | 258 | 16.1 | 14.5 | 0.00 | 0.00 | 0.00 | 60 | |
| 20260502230918 | 22 | 265 | 14.5 | 14.5 | 0.00 | 0.00 | 0.00 | 59 | |
| 20260502230716 | 22 | 250 | 9.7 | 16.1 | 0.00 | 0.00 | 0.00 | 60 | |
| 20260502230514 | 22 | 247 | 12.9 | 16.1 | 0.00 | 0.00 | 0.00 | 60 | |
| 20260502230312 | 21 | 257 | 11.3 | 19.3 | 0.00 | 0.00 | 0.00 | 61 | |
| 20260502230110 | 21 | 196 | 1.6 | 19.3 | 0.00 | 0.00 | 0.00 | 61 | |
| 20260502225906 | 21 | 258 | 9.7 | 19.3 | 0.00 | 0.00 | 0.00 | 62 | |
| 20260502225504 | 21 | 258 | 14.5 | 22.5 | 0.00 | 0.00 | 0.00 | 62 | |
| 20260502225304 | 21 | 274 | 11.3 | 19.3 | 0.00 | 0.00 | 0.00 | 61 | |
| 20260502225058 | 21 | 262 | 12.9 | 19.3 | 0.00 | 0.00 | 0.00 | 61 | |
| 20260502224858 | 21 | 227 | 11.3 | 19.3 | 0.00 | 0.00 | 0.00 | 61 | |
| 20260502224656 | 21 | 272 | 11.3 | 17.7 | 0.00 | 0.00 | 0.00 | 61 | |
| 20260502224252 | 21 | 279 | 6.4 | 22.5 | 0.00 | 0.00 | 0.00 | 62 | |
| 20260502223848 | 21 | 274 | 12.9 | 22.5 | 0.00 | 0.00 | 0.00 | 61 | |
| 20260502223646 | 21 | 262 | 12.9 | 20.9 | 0.00 | 0.00 | 0.00 | 63 | |
| 20260502223443 | 21 | 260 | 12.9 | 20.9 | 0.00 | 0.00 | 0.00 | 62 | |
| 20260502223243 | 21 | 250 | 17.7 | 22.5 | 0.00 | 0.00 | 0.00 | 62 | |
| 20260502223041 | 21 | 264 | 11.3 | 22.5 | 0.00 | 0.00 | 0.00 | 62 | |
| 20260502222838 | 21 | 253 | 14.5 | 22.5 | 0.00 | 0.00 | 0.00 | 62 | |
| 20260502222637 | 21 | 277 | 16.1 | 22.5 | 0.00 | 0.00 | 0.00 | 61 | |
| 20260502222434 | 22 | 284 | 9.7 | 22.5 | 0.00 | 0.00 | 0.00 | 59 | |
| 20260502222233 | 22 | 298 | 1.6 | 20.9 | 0.00 | 0.00 | 0.00 | 61 | |
| 20260502222029 | 21 | 267 | 14.5 | 20.9 | 0.00 | 0.00 | 0.00 | 62 | |
| 20260502221827 | 21 | 260 | 19.3 | 20.9 | 0.00 | 0.00 | 0.00 | 60 | |
| 20260502221627 | 21 | 237 | 14.5 | 22.5 | 0.00 | 0.00 | 0.00 | 62 | |
| 20260502221425 | 21 | 251 | 17.7 | 22.5 | 0.00 | 0.00 | 0.00 | 61 | |
| 20260502221223 | 22 | 274 | 22.5 | 24.1 | 0.00 | 0.00 | 0.00 | 61 | |
| 20260502221021 | 22 | 201 | 6.4 | 24.1 | 0.00 | 0.00 | 0.00 | 62 | |
| 20260502220819 | 21 | 261 | 17.7 | 22.5 | 0.00 | 0.00 | 0.00 | 61 | |
| 20260502220617 | 21 | 271 | 11.3 | 22.5 | 0.00 | 0.00 | 0.00 | 62 | |
| 20260502220415 | 21 | 260 | 17.7 | 22.5 | 0.00 | 0.00 | 0.00 | 61 | |
| 20260502220213 | 21 | 285 | 14.5 | 22.5 | 0.00 | 0.00 | 0.00 | 60 | |
| 20260502220011 | 22 | 251 | 17.7 | 22.5 | 0.00 | 0.00 | 0.00 | 62 | |
| 20260502215809 | 22 | 254 | 14.5 | 22.5 | 0.00 | 0.00 | 0.00 | 61 | |
| 20260502215607 | 21 | 272 | 8.0 | 22.5 | 0.00 | 0.00 | 0.00 | 61 | |
| 20260502215405 | 22 | 254 | 16.1 | 22.5 | 0.00 | 0.00 | 0.00 | 61 | |
| 20260502215203 | 22 | 262 | 17.7 | 19.3 | 0.00 | 0.00 | 0.00 | 60 | |
| 20260502214800 | 22 | 258 | 4.8 | 19.3 | 0.00 | 0.00 | 0.00 | 60 | |
| 20260502214356 | 22 | 257 | 6.4 | 19.3 | 0.00 | 0.00 | 0.00 | 61 | |
| 20260502214152 | 22 | 244 | 11.3 | 24.1 | 0.00 | 0.00 | 0.00 | 61 | |
| 20260502213748 | 22 | 255 | 12.9 | 20.9 | 0.00 | 0.00 | 0.00 | 61 | |
| 20260502213346 | 22 | 229 | 20.9 | 20.9 | 0.00 | 0.00 | 0.00 | 60 | |
| 20260502213144 | 22 | 260 | 14.5 | 27.4 | 0.00 | 0.00 | 0.00 | 60 | |
| 20260502212942 | 22 | 247 | 9.7 | 27.4 | 0.00 | 0.00 | 0.00 | 61 | |
| 20260502212740 | 22 | 264 | 14.5 | 24.1 | 0.00 | 0.00 | 0.00 | 60 | |
| 20260502212334 | 22 | 255 | 25.7 | 24.1 | 0.00 | 0.00 | 0.00 | 59 | |
| 20260502211932 | 22 | 274 | 19.3 | 25.7 | 0.00 | 0.00 | 0.00 | 60 | |
| 20260502211730 | 22 | 268 | 14.5 | 22.5 | 0.00 | 0.00 | 0.00 | 60 | |
| 20260502211528 | 22 | 244 | 19.3 | 22.5 | 0.00 | 0.00 | 0.00 | 60 | |
| 20260502211326 | 22 | 268 | 17.7 | 22.5 | 0.00 | 0.00 | 0.00 | 59 | |
| 20260502211124 | 22 | 289 | 12.9 | 22.5 | 0.00 | 0.00 | 0.00 | 59 | |
| 20260502210921 | 22 | 278 | 9.7 | 22.5 | 0.00 | 0.00 | 0.00 | 58 | |
| 20260502210720 | 22 | 239 | 4.8 | 25.7 | 0.00 | 0.00 | 0.00 | 59 | |
| 20260502210518 | 22 | 277 | 11.3 | 25.7 | 0.00 | 0.00 | 0.00 | 59 | |
| 20260502210316 | 22 | 258 | 19.3 | 19.3 | 0.00 | 0.00 | 0.00 | 58 | |
| 20260502210114 | 22 | 201 | 8.0 | 19.3 | 0.00 | 0.00 | 0.00 | 59 | |
| 20260502205912 | 22 | 253 | 14.5 | 19.3 | 0.00 | 0.00 | 0.00 | 59 | |
| 20260502205709 | 22 | 267 | 12.9 | 24.1 | 0.00 | 0.00 | 0.00 | 58 | |
| 20260502205509 | 22 | 250 | 14.5 | 24.1 | 0.00 | 0.00 | 0.00 | 59 | |
| 20260502205307 | 22 | 246 | 16.1 | 22.5 | 0.00 | 0.00 | 0.00 | 59 | |
| 20260502205105 | 22 | 282 | 16.1 | 22.5 | 0.00 | 0.00 | 0.00 | 59 | |
| 20260502204903 | 22 | 270 | 6.4 | 22.5 | 0.00 | 0.00 | 0.00 | 59 | |
| 20260502204701 | 22 | 282 | 12.9 | 22.5 | 0.00 | 0.00 | 0.00 | 58 | |
| 20260502204255 | 23 | 265 | 12.9 | 22.5 | 0.00 | 0.00 | 0.00 | 59 | |
| 20260502204055 | 22 | 180 | 4.8 | 22.5 | 0.00 | 0.00 | 0.00 | 59 | |
| 20260502203853 | 22 | 275 | 11.3 | 22.5 | 0.00 | 0.00 | 0.00 | 59 | |
| 20260502203247 | 22 | 255 | 12.9 | 20.9 | 0.00 | 0.00 | 0.00 | 59 | |
| 20260502202843 | 22 | 270 | 8.0 | 20.9 | 0.00 | 0.00 | 0.00 | 60 | |
| 20260502202640 | 22 | 264 | 17.7 | 20.9 | 0.00 | 0.00 | 0.00 | 60 | |
| 20260502202439 | 22 | 268 | 14.5 | 20.9 | 0.00 | 0.00 | 0.00 | 59 | |
| 20260502202035 | 22 | 262 | 9.7 | 17.7 | 0.00 | 0.00 | 0.00 | 59 | |
| 20260502201834 | 22 | 275 | 11.3 | 17.7 | 0.00 | 0.00 | 0.00 | 58 | |
| 20260502201632 | 22 | 281 | 8.0 | 24.1 | 0.00 | 0.00 | 0.00 | 57 | |
| 20260502201227 | 22 | 264 | 9.7 | 22.5 | 0.00 | 0.00 | 0.00 | 58 | |
| 20260502201026 | 22 | 261 | 16.1 | 22.5 | 0.00 | 0.00 | 0.00 | 57 | |
| 20260502200826 | 23 | 260 | 16.1 | 17.7 | 0.00 | 0.00 | 0.00 | 57 | |
| 20260502200622 | 23 | 282 | 1.6 | 17.7 | 0.00 | 0.00 | 0.00 | 57 | |
| 20260502200420 | 23 | 278 | 8.0 | 17.7 | 0.00 | 0.00 | 0.00 | 56 | |
| 20260502200218 | 23 | 261 | 9.7 | 17.7 | 0.00 | 0.00 | 0.00 | 56 | |
| 20260502195814 | 23 | 257 | 8.0 | 19.3 | 0.00 | 0.00 | 0.00 | 56 | |
| 20260502195612 | 23 | 264 | 12.9 | 19.3 | 0.00 | 0.00 | 0.00 | 57 | |
| 20260502195410 | 23 | 268 | 1.6 | 19.3 | 0.00 | 0.00 | 0.00 | 57 | |
| 20260502195208 | 23 | 272 | 12.9 | 16.1 | 0.00 | 0.00 | 0.00 | 57 | |
| 20260502195006 | 22 | 267 | 11.3 | 16.1 | 0.00 | 0.00 | 0.00 | 58 | |
| 20260502194804 | 22 | 243 | 11.3 | 16.1 | 0.00 | 0.00 | 0.00 | 58 | |
| 20260502194602 | 22 | 277 | 9.7 | 16.1 | 0.00 | 0.00 | 0.00 | 57 | |
| 20260502194158 | 22 | 286 | 8.0 | 16.1 | 0.00 | 0.00 | 0.00 | 59 | |
| 20260502193351 | 22 | 260 | 3.2 | 12.9 | 0.00 | 0.00 | 0.00 | 59 | |
| 20260502193149 | 22 | 284 | 11.3 | 19.3 | 0.00 | 0.00 | 0.00 | 59 | |
| 20260502192947 | 22 | 271 | 8.0 | 19.3 | 0.00 | 0.00 | 0.00 | 61 | |
| 20260502192744 | 21 | 265 | 12.9 | 17.7 | 0.00 | 0.00 | 0.00 | 61 | |
| 20260502192542 | 21 | 268 | 12.9 | 17.7 | 0.00 | 0.00 | 0.00 | 61 | |
| 20260502192340 | 21 | 189 | 3.2 | 17.7 | 0.00 | 0.00 | 0.00 | 62 | |
| 20260502192139 | 21 | 265 | 3.2 | 19.3 | 0.00 | 0.00 | 0.00 | 63 |